QPF
0.05 0.05 0.04 0.04 0.03 0.04 0.06 0.06 0.04 0.04 0.05 0.05 0.04 0.04 0.04 0.04 0.04 0.03 0.02 0.01 0.01 0.01 0.01 0.02 0.03 0.05 0.05 0.04 0.05 0.06 0.08 0.08 0.08 0.08 0.09 0.08 0.10 0.11
0.07 0.06 0.05 0.04 0.03 0.03 0.04 0.06 0.05 0.03 0.03 0.04 0.03 0.03 0.03 0.04 0.03 0.03 0.03 0.02 0.01 0.01 0.01 0.01 0.02 0.03 0.04 0.04 0.03 0.04 0.06 0.08 0.09 0.10 0.10 0.09 0.09 0.11
0.07 0.06 0.05 0.04 0.03 0.03 0.03 0.05 0.06 0.05 0.04 0.03 0.03 0.03 0.03 0.03 0.03 0.03 0.02 0.02 0.01 0.01 0.01 0.01 0.02 0.03 0.04 0.04 0.04 0.04 0.04 0.06 0.08 0.08 0.10 0.10 0.11 0.11
0.05 0.06 0.05 0.04 0.04 0.04 0.04 0.04 0.05 0.05 0.04 0.04 0.03 0.03 0.03 0.03 0.03 0.03 0.03 0.03 0.02 0.01 0.01 0.01 0.02 0.02 0.03 0.04 0.04 0.03 0.03 0.04 0.07 0.08 0.08 0.08 0.09 0.10
0.04 0.05 0.05 0.05 0.04 0.04 0.04 0.04 0.04 0.05 0.05 0.04 0.04 0.04 0.03 0.03 0.04 0.04 0.03 0.04 0.04 0.04 0.03 0.03 0.03 0.03 0.02 0.03 0.03 0.03 0.03 0.03 0.04 0.05 0.06 0.08 0.08 0.08
0.03 0.04 0.04 0.04 0.04 0.04 0.04 0.04 0.04 0.05 0.06 0.05 0.06 0.06 0.05 0.03 0.04 0.05 0.05 0.04 0.04 0.04 0.05 0.05 0.05 0.04 0.03 0.03 0.02 0.02 0.03 0.03 0.03 0.03 0.05 0.06 0.07 0.07
0.02 0.03 0.03 0.03 0.03 0.03 0.04 0.04 0.05 0.06 0.07 0.07 0.06 0.06 0.05 0.05 0.04 0.04 0.04 0.04 0.04 0.04 0.05 0.06 0.06 0.05 0.04 0.03 0.03 0.03 0.03 0.03 0.03 0.03 0.03 0.04 0.06 0.07
0.02 0.02 0.03 0.03 0.03 0.03 0.03 0.03 0.03 0.04 0.05 0.06 0.05 0.05 0.04 0.03 0.03 0.03 0.04 0.05 0.05 0.03 0.03 0.05 0.05 0.05 0.05 0.04 0.04 0.04 0.04 0.04 0.04 0.03 0.03 0.04 0.05 0.06
0.02 0.02 0.02 0.02 0.02 0.02 0.02 0.02 0.02 0.02 0.04 0.04 0.04 0.03 0.02 0.02 0.02 0.02 0.02 0.03 0.02 0.02 0.02 0.03 0.04 0.04 0.03 0.03 0.04 0.04 0.05 0.05 0.04 0.04 0.03 0.03 0.04 0.04
0.02 0.02 0.02 0.02 0.02 0.03 0.03 0.02 0.02 0.02 0.02 0.03 0.03 0.02 0.01 0.01 0.02 0.02 0.02 0.02 0.02 0.02 0.02 0.03 0.03 0.03 0.03 0.03 0.04 0.04 0.04 0.04 0.04 0.04 0.03 0.03 0.03 0.03
0.02 0.02 0.02 0.02 0.02 0.03 0.03 0.03 0.03 0.02 0.02 0.03 0.04 0.04 0.03 0.03 0.03 0.03 0.03 0.03 0.03 0.02 0.02 0.02 0.02 0.02 0.02 0.03 0.03 0.04 0.03 0.03 0.03 0.03 0.03 0.03 0.03 0.03
0.02 0.02 0.03 0.03 0.03 0.03 0.03 0.03 0.03 0.03 0.03 0.04 0.04 0.04 0.04 0.03 0.03 0.03 0.04 0.04 0.03 0.03 0.02 0.02 0.02 0.03 0.04 0.04 0.03 0.03 0.03 0.03 0.02 0.02 0.02 0.02 0.03 0.03
0.02 0.02 0.03 0.04 0.04 0.04 0.04 0.04 0.04 0.04 0.04 0.04 0.04 0.04 0.04 0.04 0.03 0.03 0.03 0.04 0.04 0.03 0.02 0.02 0.03 0.03 0.04 0.04 0.03 0.02 0.03 0.03 0.03 0.02 0.02 0.02 0.02 0.03
0.02 0.02 0.03 0.03 0.03 0.04 0.04 0.05 0.05 0.05 0.04 0.05 0.05 0.04 0.03 0.03 0.03 0.03 0.03 0.04 0.04 0.04 0.03 0.04 0.04 0.03 0.04 0.04 0.03 0.02 0.02 0.02 0.03 0.03 0.02 0.02 0.02 0.03
0.02 0.02 0.02 0.03 0.03 0.04 0.04 0.04 0.04 0.04 0.05 0.06 0.06 0.04 0.03 0.03 0.03 0.03 0.03 0.04 0.04 0.04 0.04 0.05 0.04 0.04 0.04 0.04 0.04 0.03 0.03 0.02 0.03 0.03 0.03 0.03 0.03 0.03
0.01 0.02 0.02 0.02 0.02 0.02 0.03 0.03 0.03 0.04 0.04 0.05 0.06 0.05 0.04 0.05 0.05 0.05 0.05 0.05 0.05 0.05 0.04 0.04 0.04 0.04 0.05 0.04 0.04 0.04 0.03 0.03 0.03 0.03 0.03 0.03 0.03 0.04
0.01 0.01 0.01 0.01 0.01 0.01 0.02 0.02 0.02 0.03 0.03 0.03 0.04 0.05 0.06 0.06 0.06 0.05 0.05 0.05 0.05 0.05 0.04 0.03 0.03 0.04 0.04 0.04 0.04 0.04 0.04 0.04 0.03 0.03 0.04 0.03 0.03 0.03
0.02 0.02 0.01 0.01 0.01 0.01 0.01 0.01 0.01 0.01 0.02 0.02 0.03 0.04 0.05 0.06 0.06 0.07 0.06 0.06 0.06 0.04 0.04 0.03 0.03 0.04 0.05 0.04 0.03 0.03 0.03 0.04 0.03 0.04 0.04 0.04 0.04 0.03
0.03 0.02 0.01 0.01 0.01 0.01 0.01 0.01 0.01 0.01 0.01 0.01 0.02 0.03 0.04 0.05 0.05 0.06 0.06 0.07 0.07 0.06 0.05 0.04 0.04 0.05 0.05 0.03 0.02 0.02 0.02 0.03 0.03 0.04 0.04 0.04 0.03 0.03
0.01 0.01 0.01 0.01 0.01 0.01 0.01 0.01 0.01 0.01 0.01 0.01 0.01 0.02 0.02 0.04 0.05 0.06 0.06 0.06 0.06 0.07 0.07 0.06 0.06 0.05 0.04 0.03 0.02 0.02 0.03 0.03 0.03 0.03 0.03 0.03 0.03 0.03
0.01 0.01 0.01 0.01 0.01 0.01 0.01 0.01 0.01 0.01 0.01 0.01 0.01 0.01 0.02 0.03 0.04 0.04 0.05 0.05 0.06 0.06 0.06 0.05 0.05 0.05 0.05 0.06 0.05 0.04 0.04 0.04 0.04 0.03 0.03 0.03 0.03 0.03
0.01 0.01 0.01 0.01 0.00 0.01 0.01 0.01 0.01 0.01 0.01 0.01 0.01 0.01 0.02 0.02 0.03 0.03 0.04 0.04 0.05 0.05 0.05 0.05 0.05 0.06 0.06 0.06 0.05 0.04 0.04 0.05 0.05 0.04 0.04 0.04 0.04 0.04
0.01 0.01 0.01 0.01 0.01 0.00 0.01 0.01 0.01 0.01 0.01 0.01 0.01 0.01 0.01 0.02 0.02 0.02 0.03 0.03 0.04 0.04 0.04 0.04 0.05 0.05 0.05 0.04 0.04 0.04 0.05 0.05 0.05 0.04 0.04 0.03 0.03 0.03
MSLP
1026.87 1026.69 1026.47 1026.21 1025.89 1025.51 1025.08 1024.61 1024.14 1023.68 1023.26 1022.90 1022.60 1022.37 1022.20 1022.06 1021.92 1021.75 1021.55 1021.29 1020.98 1020.65 1020.31 1020.01 1019.77 1019.62 1019.57 1019.63 1019.78 1019.99 1020.23 1020.47 1020.68 1020.87 1021.01 1021.13 1021.23 1021.33
1026.93 1026.80 1026.63 1026.42 1026.16 1025.83 1025.45 1025.01 1024.55 1024.09 1023.65 1023.25 1022.91 1022.63 1022.41 1022.22 1022.06 1021.89 1021.70 1021.47 1021.21 1020.93 1020.65 1020.40 1020.20 1020.08 1020.04 1020.08 1020.19 1020.35 1020.53 1020.71 1020.86 1020.98 1021.06 1021.12 1021.16 1021.22
1026.88 1026.76 1026.63 1026.47 1026.26 1025.99 1025.66 1025.27 1024.84 1024.39 1023.95 1023.53 1023.16 1022.84 1022.57 1022.35 1022.15 1021.96 1021.77 1021.56 1021.34 1021.10 1020.87 1020.66 1020.49 1020.39 1020.36 1020.39 1020.48 1020.60 1020.73 1020.86 1020.96 1021.02 1021.06 1021.07 1021.08 1021.11
1026.73 1026.61 1026.49 1026.36 1026.19 1025.97 1025.70 1025.36 1024.98 1024.57 1024.14 1023.73 1023.34 1022.99 1022.68 1022.42 1022.19 1021.97 1021.77 1021.56 1021.34 1021.13 1020.93 1020.75 1020.61 1020.52 1020.48 1020.50 1020.56 1020.65 1020.75 1020.84 1020.91 1020.95 1020.97 1020.97 1020.97 1020.98
1026.51 1026.36 1026.24 1026.12 1025.98 1025.80 1025.57 1025.29 1024.96 1024.60 1024.20 1023.80 1023.42 1023.05 1022.72 1022.42 1022.16 1021.91 1021.68 1021.46 1021.25 1021.04 1020.85 1020.68 1020.54 1020.44 1020.39 1020.39 1020.43 1020.49 1020.56 1020.64 1020.70 1020.74 1020.77 1020.78 1020.80 1020.82
1026.20 1026.03 1025.88 1025.75 1025.62 1025.47 1025.28 1025.05 1024.78 1024.46 1024.12 1023.75 1023.38 1023.02 1022.68 1022.36 1022.06 1021.79 1021.54 1021.30 1021.07 1020.85 1020.65 1020.47 1020.31 1020.20 1020.12 1020.08 1020.09 1020.13 1020.19 1020.26 1020.34 1020.40 1020.47 1020.52 1020.58 1020.64
1025.82 1025.60 1025.42 1025.27 1025.13 1024.99 1024.84 1024.65 1024.43 1024.17 1023.88 1023.56 1023.22 1022.88 1022.54 1022.22 1021.92 1021.63 1021.36 1021.10 1020.85 1020.61 1020.39 1020.18 1020.00 1019.84 1019.73 1019.66 1019.63 1019.64 1019.69 1019.77 1019.87 1019.98 1020.09 1020.21 1020.33 1020.45
1025.36 1025.10 1024.88 1024.69 1024.54 1024.40 1024.26 1024.11 1023.93 1023.73 1023.49 1023.23 1022.94 1022.64 1022.32 1022.01 1021.72 1021.42 1021.15 1020.88 1020.62 1020.36 1020.12 1019.88 1019.66 1019.47 1019.32 1019.20 1019.14 1019.13 1019.17 1019.25 1019.38 1019.53 1019.70 1019.88 1020.07 1020.25
1024.82 1024.51 1024.25 1024.03 1023.85 1023.70 1023.57 1023.45 1023.31 1023.16 1022.98 1022.77 1022.54 1022.28 1022.01 1021.74 1021.46 1021.19 1020.92 1020.65 1020.39 1020.13 1019.88 1019.62 1019.38 1019.15 1018.96 1018.80 1018.71 1018.67 1018.70 1018.79 1018.93 1019.13 1019.35 1019.59 1019.83 1020.07
1024.20 1023.86 1023.56 1023.30 1023.10 1022.93 1022.80 1022.69 1022.59 1022.48 1022.36 1022.21 1022.04 1021.84 1021.62 1021.39 1021.15 1020.91 1020.67 1020.43 1020.19 1019.94 1019.69 1019.43 1019.18 1018.93 1018.71 1018.53 1018.40 1018.35 1018.36 1018.45 1018.60 1018.82 1019.08 1019.36 1019.64 1019.92
1023.53 1023.15 1022.81 1022.52 1022.29 1022.11 1021.98 1021.88 1021.80 1021.74 1021.66 1021.56 1021.45 1021.31 1021.14 1020.96 1020.78 1020.59 1020.39 1020.19 1019.99 1019.78 1019.55 1019.32 1019.07 1018.83 1018.60 1018.40 1018.26 1018.18 1018.18 1018.25 1018.41 1018.63 1018.90 1019.20 1019.51 1019.81
1022.80 1022.39 1022.02 1021.70 1021.44 1021.25 1021.12 1021.03 1020.97 1020.93 1020.90 1020.85 1020.79 1020.70 1020.59 1020.47 1020.34 1020.20 1020.06 1019.92 1019.77 1019.61 1019.44 1019.24 1019.03 1018.81 1018.59 1018.39 1018.24 1018.15 1018.13 1018.19 1018.33 1018.55 1018.81 1019.12 1019.42 1019.72
1022.01 1021.57 1021.18 1020.84 1020.56 1020.36 1020.22 1020.15 1020.11 1020.10 1020.10 1020.09 1020.07 1020.03 1019.97 1019.90 1019.82 1019.74 1019.67 1019.59 1019.51 1019.41 1019.30 1019.16 1019.00 1018.82 1018.63 1018.45 1018.30 1018.20 1018.17 1018.21 1018.34 1018.53 1018.78 1019.06 1019.36 1019.65
1021.16 1020.69 1020.28 1019.93 1019.65 1019.44 1019.31 1019.24 1019.23 1019.24 1019.27 1019.29 1019.31 1019.31 1019.29 1019.26 1019.24 1019.21 1019.19 1019.18 1019.17 1019.15 1019.10 1019.03 1018.93 1018.80 1018.65 1018.50 1018.37 1018.27 1018.23 1018.25 1018.36 1018.52 1018.75 1019.01 1019.29 1019.57
1020.21 1019.74 1019.32 1018.97 1018.69 1018.50 1018.38 1018.33 1018.33 1018.37 1018.42 1018.48 1018.52 1018.55 1018.56 1018.57 1018.59 1018.61 1018.64 1018.69 1018.74 1018.79 1018.82 1018.82 1018.79 1018.72 1018.62 1018.50 1018.39 1018.30 1018.25 1018.27 1018.35 1018.49 1018.69 1018.94 1019.20 1019.46
1019.18 1018.72 1018.31 1017.97 1017.71 1017.53 1017.44 1017.41 1017.44 1017.50 1017.58 1017.66 1017.72 1017.77 1017.81 1017.85 1017.89 1017.94 1018.02 1018.12 1018.23 1018.34 1018.44 1018.51 1018.54 1018.53 1018.49 1018.41 1018.32 1018.25 1018.21 1018.21 1018.28 1018.41 1018.59 1018.81 1019.06 1019.31
1018.08 1017.64 1017.25 1016.94 1016.72 1016.58 1016.52 1016.53 1016.58 1016.67 1016.77 1016.86 1016.94 1017.00 1017.06 1017.11 1017.17 1017.25 1017.35 1017.49 1017.64 1017.81 1017.97 1018.10 1018.20 1018.25 1018.26 1018.23 1018.18 1018.13 1018.10 1018.10 1018.16 1018.27 1018.44 1018.65 1018.89 1019.14
1016.96 1016.55 1016.21 1015.95 1015.76 1015.67 1015.65 1015.70 1015.79 1015.90 1016.02 1016.12 1016.21 1016.28 1016.33 1016.39 1016.45 1016.54 1016.67 1016.82 1017.01 1017.22 1017.43 1017.62 1017.78 1017.90 1017.96 1017.98 1017.98 1017.95 1017.94 1017.95 1018.01 1018.12 1018.27 1018.48 1018.70 1018.95
1015.88 1015.52 1015.23 1015.02 1014.90 1014.86 1014.89 1014.97 1015.09 1015.22 1015.35 1015.46 1015.55 1015.61 1015.66 1015.71 1015.77 1015.86 1015.98 1016.16 1016.37 1016.61 1016.86 1017.11 1017.32 1017.50 1017.63 1017.71 1017.75 1017.77 1017.79 1017.82 1017.88 1017.98 1018.13 1018.32 1018.54 1018.77
1014.90 1014.59 1014.37 1014.22 1014.15 1014.16 1014.24 1014.36 1014.50 1014.65 1014.79 1014.90 1014.97 1015.02 1015.05 1015.08 1015.13 1015.21 1015.33 1015.51 1015.74 1016.01 1016.30 1016.59 1016.86 1017.10 1017.30 1017.44 1017.55 1017.62 1017.68 1017.74 1017.81 1017.92 1018.06 1018.23 1018.43 1018.64
1014.05 1013.81 1013.64 1013.55 1013.54 1013.60 1013.72 1013.86 1014.03 1014.18 1014.32 1014.42 1014.48 1014.51 1014.52 1014.53 1014.55 1014.61 1014.73 1014.90 1015.14 1015.43 1015.75 1016.09 1016.42 1016.72 1017.00 1017.22 1017.40 1017.53 1017.65 1017.75 1017.85 1017.96 1018.09 1018.24 1018.41 1018.59
1013.35 1013.15 1013.04 1013.00 1013.04 1013.14 1013.28 1013.45 1013.62 1013.78 1013.90 1013.99 1014.04 1014.04 1014.03 1014.02 1014.03 1014.07 1014.18 1014.35 1014.59 1014.89 1015.24 1015.62 1016.01 1016.39 1016.74 1017.05 1017.31 1017.52 1017.70 1017.85 1017.99 1018.11 1018.24 1018.37 1018.50 1018.64
1012.74 1012.59 1012.52 1012.52 1012.59 1012.72 1012.88 1013.06 1013.23 1013.38 1013.50 1013.58 1013.61 1013.60 1013.58 1013.55 1013.54 1013.58 1013.68 1013.84 1014.09 1014.41 1014.79 1015.22 1015.66 1016.11 1016.54 1016.93 1017.28 1017.58 1017.84 1018.05 1018.23 1018.38 1018.51 1018.62 1018.72 1018.81
Thickness
5433 5434 5436 5438 5439 5440 5443 5445 5449 5455 5461 5463 5462 5463 5465 5467 5470 5473 5477 5481 5485 5490 5494 5500 5504 5509 5513 5517 5521 5525 5529 5532 5535 5538 5540 5543 5545 5546
5419 5421 5423 5425 5426 5427 5429 5431 5433 5437 5443 5449 5449 5449 5450 5452 5455 5459 5463 5467 5471 5476 5480 5485 5490 5495 5499 5504 5509 5513 5516 5520 5523 5527 5529 5532 5534 5536
5406 5408 5410 5411 5413 5415 5416 5417 5419 5422 5427 5432 5433 5434 5435 5438 5441 5444 5448 5452 5457 5462 5466 5471 5476 5481 5486 5491 5495 5500 5504 5507 5511 5515 5517 5521 5523 5526
5393 5395 5397 5398 5400 5401 5403 5404 5406 5408 5411 5415 5418 5419 5420 5423 5426 5430 5434 5438 5443 5448 5452 5457 5461 5466 5472 5477 5481 5486 5490 5494 5499 5503 5506 5510 5512 5513
5378 5381 5382 5384 5387 5388 5390 5391 5393 5394 5396 5399 5403 5404 5406 5408 5410 5415 5419 5424 5428 5433 5438 5442 5447 5452 5457 5462 5467 5473 5477 5482 5487 5490 5493 5496 5499 5501
5364 5366 5368 5370 5372 5374 5376 5378 5379 5380 5381 5384 5387 5390 5392 5393 5395 5400 5404 5409 5414 5418 5423 5428 5432 5437 5442 5448 5455 5459 5463 5467 5472 5476 5479 5483 5485 5488
5350 5352 5354 5355 5357 5359 5361 5363 5364 5366 5367 5369 5372 5375 5378 5379 5381 5385 5389 5393 5398 5403 5408 5413 5418 5423 5427 5433 5438 5444 5449 5453 5457 5461 5465 5469 5472 5475
5336 5338 5340 5341 5343 5344 5345 5347 5349 5351 5353 5354 5357 5360 5363 5365 5367 5369 5373 5378 5385 5390 5392 5398 5401 5407 5413 5418 5423 5429 5434 5438 5443 5447 5451 5454 5458 5461
5321 5324 5325 5327 5327 5329 5331 5332 5334 5335 5337 5339 5343 5346 5348 5351 5352 5354 5357 5362 5370 5374 5376 5384 5387 5393 5398 5403 5408 5414 5419 5424 5428 5432 5436 5440 5443 5447
5307 5308 5310 5312 5313 5314 5316 5318 5320 5323 5324 5326 5330 5332 5333 5334 5336 5338 5342 5347 5353 5358 5361 5368 5375 5379 5384 5389 5394 5399 5405 5409 5413 5417 5421 5425 5429 5433
5293 5294 5296 5298 5299 5299 5301 5304 5307 5309 5309 5311 5314 5316 5318 5320 5321 5323 5327 5332 5340 5345 5348 5354 5361 5364 5370 5375 5380 5384 5389 5394 5398 5402 5406 5410 5414 5418
5280 5282 5283 5285 5286 5285 5286 5289 5292 5294 5295 5298 5300 5303 5305 5306 5308 5310 5314 5319 5325 5331 5337 5339 5345 5347 5354 5361 5365 5369 5373 5378 5383 5387 5391 5395 5399 5402
5267 5269 5270 5271 5273 5273 5274 5275 5278 5279 5281 5284 5287 5290 5292 5294 5296 5298 5301 5305 5311 5318 5322 5323 5328 5332 5336 5344 5350 5354 5359 5363 5367 5373 5377 5381 5384 5388
5254 5255 5256 5257 5258 5259 5260 5262 5263 5265 5268 5271 5274 5277 5279 5281 5283 5285 5288 5291 5296 5302 5306 5308 5313 5317 5321 5326 5333 5339 5343 5347 5352 5358 5362 5367 5370 5374
5241 5242 5243 5244 5245 5246 5247 5248 5250 5252 5254 5257 5260 5263 5264 5266 5269 5271 5274 5277 5282 5287 5291 5294 5297 5301 5305 5311 5317 5321 5326 5332 5336 5342 5347 5351 5356 5359
5229 5230 5231 5231 5232 5233 5234 5235 5236 5238 5240 5242 5245 5248 5250 5252 5255 5258 5261 5263 5268 5273 5276 5279 5282 5285 5290 5295 5301 5306 5310 5316 5322 5326 5331 5336 5340 5345
5216 5217 5218 5219 5219 5220 5221 5222 5223 5225 5226 5228 5231 5234 5236 5239 5242 5244 5247 5250 5254 5258 5262 5264 5267 5270 5274 5279 5285 5291 5296 5301 5306 5311 5315 5321 5326 5331
5204 5205 5206 5205 5205 5206 5206 5208 5209 5210 5212 5214 5216 5219 5221 5224 5227 5230 5233 5236 5240 5244 5247 5249 5251 5255 5260 5266 5270 5277 5282 5286 5291 5296 5301 5307 5313 5317
5192 5193 5192 5192 5191 5191 5192 5193 5194 5195 5197 5199 5201 5204 5206 5210 5213 5217 5221 5224 5227 5231 5234 5236 5238 5242 5248 5256 5261 5262 5267 5272 5276 5281 5287 5293 5299 5304
5181 5180 5180 5179 5179 5179 5179 5179 5180 5181 5183 5185 5188 5190 5193 5196 5200 5203 5207 5211 5215 5219 5222 5225 5227 5231 5236 5243 5247 5250 5252 5257 5262 5268 5273 5278 5283 5288
5170 5169 5169 5168 5168 5167 5167 5167 5168 5169 5170 5172 5175 5177 5180 5183 5187 5190 5195 5199 5203 5207 5211 5215 5217 5218 5221 5226 5232 5238 5242 5244 5249 5254 5259 5263 5268 5273
5159 5158 5158 5157 5157 5157 5157 5157 5157 5158 5159 5161 5163 5165 5168 5171 5175 5178 5182 5187 5191 5195 5198 5202 5204 5207 5211 5216 5221 5226 5230 5233 5236 5240 5245 5250 5255 5262
5149 5148 5147 5147 5147 5147 5147 5147 5147 5148 5149 5150 5152 5155 5157 5160 5164 5167 5171 5175 5180 5184 5187 5191 5194 5197 5200 5204 5209 5213 5217 5221 5225 5229 5235 5239 5244 5248